Location: Bismarck
(46.7731°N, 100.8200°W)
Time: 21:59:36
(UTC-05:00)

ISS - Visible Passes

Search period start: 23 July 2016 00:00
Search period end: 02 August 2016 00:00
Orbit: 401 x 404 km, 51.6° (Epoch: 23 July)

Date Brightness Start Highest point End Pass type
(mag) Time Alt. Az. Time Alt. Az. Time Alt. Az.
23 Jul -1.3 01:39:52 24° NE 01:39:52 24° NE 01:41:18 10° ENE visible
23 Jul -1.6 03:12:27 14° WNW 03:14:50 33° N 03:17:50 10° ENE visible
23 Jul -2.3 04:48:30 10° WNW 04:51:42 49° NNE 04:54:53 10° E visible
24 Jul -1.8 02:21:07 32° NW 02:21:46 36° N 02:24:50 10° ENE visible
24 Jul -1.9 03:55:34 10° WNW 03:58:40 39° NNE 04:01:45 10° E visible
24 Jul -3.4 05:32:00 10° WNW 05:35:15 64° SSW 05:38:29 10° SE visible
25 Jul -1.7 01:29:43 32° NNE 01:29:43 32° NNE 01:31:53 10° ENE visible
25 Jul -1.6 03:02:35 10° WNW 03:05:37 34° N 03:08:38 10° ENE visible
25 Jul -3.3 04:39:04 10° WNW 04:42:21 80° NNE 04:45:36 10° ESE visible
25 Jul -2.3 22:56:39 10° SSW 22:59:04 26° SSE 22:59:04 26° SSE visible
26 Jul -1.1 00:37:54 19° NE 00:37:54 19° NE 00:38:57 10° ENE visible
26 Jul -1.6 02:10:24 16° WNW 02:12:32 33° N 02:15:32 10° ENE visible
26 Jul -2.6 03:46:09 10° WNW 03:49:22 54° NNE 03:52:35 10° E visible
26 Jul -2.6 05:22:45 10° WNW 05:25:43 32° SW 05:28:39 10° SSE visible
26 Jul -1.7 22:04:39 10° S 22:06:43 16° SE 22:08:49 10° E visible
26 Jul -3.5 23:39:30 10° WSW 23:42:46 90° SSE 23:46:02 10° ENE visible
27 Jul -1.7 01:16:26 10° WNW 01:19:28 35° N 01:22:30 10° ENE visible
27 Jul -2.0 02:53:14 10° WNW 02:56:21 41° NNE 02:59:29 10° E visible
27 Jul -3.3 04:29:41 10° WNW 04:32:53 55° SSW 04:36:04 10° SE visible
27 Jul -3.3 22:46:42 10° SW 22:49:53 54° SSE 22:53:05 10° ENE visible
28 Jul -2.0 00:23:17 10° W 00:26:24 41° NNW 00:29:32 10° ENE visible
28 Jul -1.5 02:00:16 10° WNW 02:08:10 - E 02:02:39 31° NNW visible
28 Jul -2.2 03:41:18 34° ESE 03:41:18 34° ESE 03:43:16 10° ESE visible
28 Jul -1.7 05:14:25 12° WSW 05:16:02 16° SW 05:18:09 10° S visible
28 Jul -2.6 21:54:07 10° SSW 21:57:03 31° SE 22:00:00 10° ENE visible
28 Jul -2.6 23:30:10 10° W 23:33:23 54° NNW 23:36:36 10° ENE visible
29 Jul -1.6 01:07:13 10° WNW 01:10:13 33° N 01:10:48 30° NNE visible
29 Jul -3.3 22:37:09 10° WSW 22:40:25 80° NNW 22:43:41 10° ENE visible
30 Jul -1.6 00:14:07 10° WNW 00:17:08 34° N 00:19:23 15° NE visible
30 Jul -0.9 01:50:52 10° WNW 01:51:57 18° NW 01:51:57 18° NW visible
30 Jul -1.9 23:20:58 10° W 23:24:04 39° NNW 23:27:10 10° ENE visible
31 Jul -1.7 00:57:54 10° WNW 01:00:37 35° N 01:00:37 35° N visible
31 Jul -2.4 22:27:51 10° W 22:31:02 50° NNW 22:34:14 10° ENE visible
01 Aug -1.6 00:04:53 10° WNW 00:07:54 33° N 00:09:19 22° NE visible
01 Aug -0.5 01:41:26 10° WNW 01:41:54 13° WNW 01:41:54 13° WNW visible
01 Aug -1.6 23:11:47 10° WNW 23:14:48 33° N 23:17:49 10° ENE visible
